Regional Weather Roundup
Issued by NWS Newport/Morehead, NC

Current Version | Previous Version | Text Only | Print | Product List | Glossary Off
Versions: 1 2 3 4 5 6 7 8 9 10 11 12 13 14 15 16 17 18 19 20 21 22 23 24 25 26 27 28 29 30 31 32 33 34 35 36 37 38 39 40 41 42 43 44 45 46 47 48 49 50
000 ASUS42 KMHX 080825 RWRMHX WEATHER ROUNDUP FOR EASTERN NORTH CAROLINA NATIONAL WEATHER SERVICE NEWPORT/MOREHEAD CITY NC 300 AM EST MON FEB 08 2016 NOTE: "FAIR" INDICATES FEW OR NO CLOUDS BELOW 12,000 FEET WITH NO SIGNIFICANT WEATHER AND/OR OBSTRUCTIONS TO VISIBILITY NCZ015>017-031-032-045>047-102-103-080900- NORTH COAST CITY SKY/WX TMP DP RH WIND PRES REMARKS EDENTON PTCLDY 40 28 60 N13G20 29.69R ELIZABETH CITY CLOUDY 40 30 67 NW20G28 29.66R KITTY HAWK CLOUDY 40 36 84 NW16G25 29.60R MANTEO CLOUDY 40 36 83 N16G28 29.62R $$ NCZ045>047-081-094-103-104-080900- CENTRAL COAST CITY SKY/WX TMP DP RH WIND PRES REMARKS FRISCO CLOUDY 42 38 85 NW17G33 29.59R SWANQUARTER N/A 39 N/A N/A NW18G29 29.62S $$ NCZ095-097-098-100-101-080900- SOUTHERN COAST CITY SKY/WX TMP DP RH WIND PRES REMARKS BEAUFORT CLEAR 41 28 60 NW21 29.69R CEDAR ISLAND N/A 41 N/A N/A NW28G45 29.71R JACKSONVILLE PTCLDY 39 24 55 NW15 29.75R PINEY ISLAND NOT AVBL WILMINGTON CLEAR 40 25 55 NW15 29.80R $$ NCZ011>013-027>030-043-044-078>080-089-090>093-098-080900- COASTAL PLAIN CITY SKY/WX TMP DP RH WIND PRES REMARKS AHOSKIE PTCLDY 37 21 52 NW5 29.73S CLINTON CLEAR 38 27 64 NW6 29.82R ELIZABETHTOWN CLEAR 38 28 65 W8 29.83S GOLDSBORO PTCLDY 37 23 56 NW9 29.76R GREENVILLE CLEAR 37 23 56 NW8 29.76R HAVELOCK PTCLDY 40 25 55 NW18G26 29.70R KENANSVILLE N/A 37 24 59 NW5 29.80R KINSTON CLEAR 38 24 55 NW8 29.76R NEW BERN CLEAR 39 24 55 NW12G20 29.72R RICHLANDS PTCLDY 37 21 52 W5 29.77R ROCKY MOUNT PTCLDY 37 22 54 NW10 29.76F WASHINGTON CLEAR 38 23 55 CALM 29.71R WHITEVILLE CLEAR 39 28 65 W5 29.84S $$ AMZ130-135-150-152-154-156-158-170-250-252-270-ANZ085-086-088-633-658-670-080900- MARINE OBSERVATIONS STATION/POSITION TIME TEMP WIND PRES WAVE SWELL AIR SEA DIR/SP/G HT/PER HT/PER (UTC) (F) (DEG/KT/KT) (MB) (FT/S) (FT/S) CHESAPEAKE LIGHT 0800 40 340/ 36/ 39 1002.9 64 E VA BEACH 0750 49 53 10/ 33/ 41 997.5 18/11 13/11 DUCK 0800 42 52 340/ 25/ 30 1001.4 2 E DUCK 0811 44 N/A 14/12 10/12 OREGON INLET 0800 41 45 320/ 18/ 23 1001.9 13E OREGON INLT 0800 47 N/A 19/13 15/13 HATTERAS CG 0800 42 46 320/ 30/ 33 1002.0 DIAMOND BUOY 0750 47 71 340/ 31/ 39 1000.1 16/13 13/13 CAPE LOOKOUT NOT AVBL BEAUFORT LAB 0800 41 44 320/ 12/ 19 1004.5 30 SE NEW RVR IN 0808 47 58 1003.8 30 SE NEW RVR IN 0725 58 N/A 11/ 6 5/13 27 SE WRIGHTSVLE 0808 47 360/ 23/ 33 1005.1 5 SE WRIGHTSVLE 0708 45 52 320/ 17/ 25 1008.1 225 S CAPE HAT 0750 60 69 300/ 35/ 43 N/A 30/11 41 SE CHARLESTON 0750 53 66 320/ 17/ 21 1011.9 7/ 8 3/ 8 $$

USA.gov is the U.S. government's official web portal to all federal, state and local government web resources and services.